Regional Weather Roundup
Issued by NWS

Home | Current Version | Previous Version | Text Only | Print | Product List | Glossary On
Versions: 1 2 3 4 5 6 7 8 9 10 11 12 13 14 15 16 17 18 19 20 21 22 23 24 25 26 27 28 29 30 31 32 33 34 35 36 37 38 39 40 41 42 43 44 45 46 47 48 49 50
000
ASUS46 KSEW 182110
RWRWA

WASHINGTON REGIONAL WEATHER ROUNDUP
NATIONAL WEATHER SERVICE SEATTLE WA
100 PM PST THU DEC 18 2014

NOTE:"FAIR" INDICATES FEW OR NO CLOUDS BELOW 12,000 FEET WITH NO
SIGNIFICANT WEATHER AND/OR OBSTRUCTIONS TO VISIBILITY.

WAZ505-507>509-182200-
SEATTLE, TACOMA, EVERETT, AND VICINITY

CITY           SKY/WX    TMP DP  RH WIND       PRES   REMARKS
EVERETT        CLOUDY    47  41  80 SE10      29.82F
BOEING FIELD   CLOUDY    50  43  77 SE3       29.85F
RENTON         LGT RAIN  49  44  83 S5        29.84F
SEATAC AIRPORT LGT RAIN  48  41  76 SE7       29.84F
JBLM-MCCHORD   CLOUDY    47  47  99 SE1       29.84F
PUYALLUP       NOT AVBL
JBLM-FT LEWIS  DRIZZLE   48  48  99 CALM      29.83F
TACOMA NARROWS CLOUDY    47  44  90 CALM      29.84F
$$

WAZ001-503-506-510-514-515-182200-
NORTH INTERIOR

CITY           SKY/WX    TMP DP  RH WIND       PRES   REMARKS
BELLINGHAM     CLOUDY    46  42  86 N8        29.82F
FRIDAY HARBOR  CLOUDY    49  42  77 E13G21    29.80F
EASTSOUND      LGT RAIN  50  43  76 SE8       29.78F
PORT ANGELES   PTSUNNY   47  43  86 NW5       29.75F
NAS WHIDBEY    CLOUDY    52  42  69 SE17G30   29.80F
BURLINGTON     CLOUDY    48  45  87 E9        29.83F
$$

WAZ020-022-039-040-504-511-512-182200-
SOUTHWEST INTERIOR

CITY           SKY/WX    TMP DP  RH WIND       PRES   REMARKS
SHELTON        CLOUDY    47  45  93 NE3       29.81F
OLYMPIA        LGT RAIN  48  45  89 SW3       29.84F
CHEHALIS       CLOUDY    48  46  93 S10G16    29.84F
KELSO          CLOUDY    46  43  87 SE12      29.90F
VANCOUVER      CLOUDY    46  40  79 E15       29.88F
SCAPPOOSE, OR  CLOUDY    46  42  86 SW3       29.89F
PORTLAND, OR   CLOUDY    46  42  86 E15       29.89F
$$

WAZ021-516-517-182200-
WASHINGTON COAST

CITY           SKY/WX    TMP DP  RH WIND       PRES   REMARKS
FORKS          CLOUDY    51  47  86 SE15G23   29.71F
HOQUIAM        LGT RAIN  48  47  96 E12       29.79S FOG
ASTORIA, OR    CLOUDY    51  46  83 SE7       29.79F
$$

WAZ019-023-024-040-518-519-182200-
CASCADE MOUNTAINS AND COLUMBIA GORGE

CITY           SKY/WX    TMP DP  RH WIND       PRES   REMARKS
STAMPEDE PASS  NOT AVBL
TROUTDALE, OR  CLOUDY    46  39  76 E23G31    29.88F
THE DALLES, OR CLOUDY    41  36  82 CALM      30.00F
$$

WAZ026-027-041>044-520-521-182200-
EAST SLOPES

CITY           SKY/WX    TMP DP  RH WIND       PRES   REMARKS
OMAK           CLOUDY    37  35  92 S6        29.99F
WENATCHEE      CLOUDY    39  36  89 SE3       29.97F FOG
ELLENSBURG     CLOUDY    39  33  79 E3        29.95F
YAKIMA         CLOUDY    42  35  76 CALM      29.98F
$$

WAZ028-034-035-182200-
COLUMBIA BASIN

CITY           SKY/WX    TMP DP  RH WIND       PRES   REMARKS
EPHRATA        CLOUDY    39  36  89 SE3       29.98F
MOSES LAKE     CLOUDY    40  36  86 SE6       30.00F
PASCO          FAIR      40  38  93 CALM      30.02F
HERMISTON, OR  PTSUNNY   40  36  86 CALM      29.99F FOG
$$

WAZ036>038-182200-
NORTHEAST WASHINGTON

CITY           SKY/WX    TMP DP  RH WIND       PRES   REMARKS
SPOKANE GEIGER CLOUDY    41  36  82 S5        29.97S
SPOKANE FELTS  CLOUDY    42  37  82 CALM      29.99F
FAIRCHILD AFB  MIX PCPN  39  39 100 S6        29.96F
COEURDALENE,ID CLOUDY    43  37  81 S7        29.96F
DEER PARK      CLOUDY    37  34  89 CALM      29.99S
$$

WAZ029>033-182200-
SOUTHEAST WASHINGTON

CITY           SKY/WX    TMP DP  RH WIND       PRES   REMARKS
PULLMAN        CLOUDY    45  37  73 SE10      29.99F
LEWISTON, ID   PTSUNNY   47  41  80 NE3       30.00F
WALLA WALLA    FAIR      43  39  86 CALM      29.98F FOG
PENDLETON, OR  PTSUNNY   40  38  93 NW5       29.96F FOG
$$



USA.gov is the U.S. government's official web portal to all federal, state and local government web resources and services.